Погода в Петровке

Украина / Одесская область     46°58′07″N   30°57′27″E
темп.,
°C
ветер,
м/с
пор.,
м/с
влажн.,
%
обл.,
%
осадки,
мм/ч
давл.,
гПа
погр.,
м
21 января, пт
пт2123:00−1зсз3566100 0.0 1011110
02:000юз237378 0.0 101033
05:00−1зсз8147299 0.0 1010501
08:00−1зсз6116990 0.0 1012735
11:00+1зсз811505 0.0 10141033
14:00+2зсз811352 0.0 10131573
17:00−1з59440 0.0 1013206
20:00−3зюз410523 0.0 1014268
22 января, сб
сб2223:00−3з511628 0.0 1014445
02:00−3з511635 0.0 1014485
05:00−3з6125486 0.0 1013523
08:00−4з510565 0.0 1014424
11:000зсз67545 0.0 1014848
14:00+1зсз5751100 0.0 10141341
17:00−2зсз34605 0.0 101554
20:00−3зсз33675 0.0 101652
23 января, вс
вс2323:00−3зсз37727 0.0 1016186
02:00−4сз489284 0.0 1017351
05:00−5ссз48866 0.0 1018329
08:00−6ссз368925 0.0 1019295
11:00−3с456679 0.0 1020711
14:00−1ссв5556100 0.0 10201243
17:00−3ссв5875100 0.0 1022565
20:00−4ссв598767 0.1 1024459
24 января, пн
пн2423:00−5ссв5108412 0.0 1025410
02:00−5с6118399 0.0 1026453
05:00−5с71182100 0.0 1026458
08:00−5ссз71276100 0.0 1027502
11:00−4ссз71185100 0.2 1027595
14:00−3с7872100 0.4 10261033
17:00−4ссз5883100 0.1 1027658
20:00−4ссз5987100 0.1 1027547
25 января, вт
вт2523:00−5ссз5893100 0.5 1027433
02:00−5ссз5894100 1.9 1027410
05:00−5ссз589397 0.8 1027415
08:00−6ссз4892100 0.9 1027401
11:00−4ссз5685100 0.4 1027509
14:00−4ссз4584100 0.6 1026579
17:00−5ссз3594100 0.1 1026242
20:00−6зсз2296100 0.1 102638